EW3393 Weather Reports


Display with metric or nautical units.
time (UTC)temp
F
wind
direction
speed
MPH
gust
MPH
rain 1hr
in
rain 24hr
in
rain mn
in
humidity
%
barometer
mb
20260505095814 58 271 19.0 25.0 0.00 0.00 0.00 60 1010.1
20260505095329 58 259 16.0 24.0 0.00 0.00 0.00 60 1010.1
20260505094822 58 274 18.0 24.0 0.00 0.00 0.00 60 1010.1
20260505094314 58 304 17.0 22.0 0.00 0.00 0.00 59 1010.1
20260505093826 58 290 14.0 24.0 0.00 0.00 0.00 58 1010.1
20260505093336 59 276 18.0 25.0 0.00 0.00 0.00 58 1010.3
20260505092827 59 267 21.0 25.0 0.00 0.00 0.00 58 1010.2
20260505092317 59 257 17.0 24.0 0.00 0.00 0.00 58 1010.2
20260505091830 59 252 19.0 27.0 0.00 0.00 0.00 58 1010.3
20260505091320 59 289 22.0 29.0 0.00 0.00 0.00 58 1010.3
20260505090818 59 281 20.0 29.0 0.00 0.00 0.00 58 1010.4
20260505090347 59 273 18.0 28.0 0.00 0.00 0.00 57 1010.4
20260505085816 59 275 16.0 21.0 0.00 0.00 0.00 57 1010.4
20260505085326 58 263 14.0 19.0 0.00 0.00 0.00 58 1010.4
20260505084839 58 250 11.0 22.0 0.00 0.00 0.00 58 1010.4
20260505084348 59 269 14.0 22.0 0.00 0.00 0.00 58 1010.5
20260505083820 59 280 13.0 22.0 0.00 0.00 0.00 58 1010.6
20260505083331 59 252 17.0 22.0 0.00 0.00 0.00 58 1010.6
20260505082846 59 260 14.0 24.0 0.00 0.00 0.00 57 1010.5
20260505082316 59 279 16.0 24.0 0.00 0.00 0.00 57 1010.5
20260505081829 59 280 12.0 21.0 0.00 0.00 0.00 58 1010.6
20260505081325 59 265 16.0 23.0 0.00 0.00 0.00 57 1010.6
20260505080838 59 273 16.0 26.0 0.00 0.00 0.00 57 1010.7
20260505080348 60 269 18.0 26.0 0.00 0.00 0.00 56 1010.7
20260505075837 60 280 17.0 24.0 0.00 0.00 0.00 55 1010.7
20260505075328 60 265 16.0 23.0 0.00 0.00 0.00 55 1010.7
20260505074821 60 275 15.0 25.0 0.00 0.00 0.00 55 1010.7
20260505074313 60 286 19.0 27.0 0.00 0.00 0.00 55 1010.6
20260505073826 60 285 19.0 27.0 0.00 0.00 0.00 55 1010.7
20260505073316 60 290 15.0 28.0 0.00 0.00 0.00 55 1010.6
20260505072848 60 288 18.0 28.0 0.00 0.00 0.00 55 1010.5
20260505072318 60 257 19.0 28.0 0.00 0.00 0.00 56 1010.6
20260505071814 60 296 17.0 26.0 0.00 0.00 0.00 56 1010.6
20260505071345 60 288 18.0 30.0 0.00 0.00 0.00 55 1010.7
20260505070816 60 305 18.0 29.0 0.00 0.00 0.00 56 1010.6
20260505070327 59 325 19.0 29.0 0.00 0.00 0.00 57 1010.5
20260505065817 59 324 17.0 33.0 0.00 0.00 0.00 57 1010.6
20260505065327 60 318 20.0 33.0 0.00 0.00 0.00 57 1010.7
20260505064840 60 299 23.0 29.0 0.00 0.00 0.00 56 1010.6
20260505064330 60 292 20.0 29.0 0.00 0.00 0.00 56 1010.7
20260505063822 60 303 18.0 25.0 0.00 0.00 0.00 56 1010.6
20260505063317 60 304 17.0 26.0 0.00 0.00 0.00 55 1010.7
20260505062829 60 326 17.0 26.0 0.00 0.00 0.00 55 1010.8
20260505062320 60 322 15.0 23.0 0.00 0.00 0.00 55 1010.9
20260505061853 60 302 18.0 23.0 0.00 0.00 0.00 54 1010.9
20260505061323 60 307 15.0 25.0 0.00 0.00 0.00 54 1010.8
20260505060816 60 301 19.0 25.0 0.00 0.00 0.00 54 1010.8
20260505060327 60 322 15.0 25.0 0.00 0.00 0.00 53 1010.8
20260505055837 60 314 14.0 23.0 0.00 0.00 0.00 53 1010.8
20260505055327 60 317 17.0 23.0 0.00 0.00 0.00 53 1010.9
20260505054819 60 333 12.0 23.0 0.00 0.00 0.00 53 1011.1
20260505054313 60 328 15.0 24.0 0.00 0.00 0.00 52 1011.0
20260505053825 60 310 17.0 26.0 0.00 0.00 0.00 53 1011.1
20260505053316 60 290 13.0 26.0 0.00 0.00 0.00 53 1011.2
20260505052828 61 296 16.0 24.0 0.00 0.00 0.00 53 1011.1
20260505052319 61 300 17.0 24.0 0.00 0.00 0.00 53 1011.0
20260505051831 61 277 15.0 25.0 0.00 0.00 0.00 52 1011.0
20260505051322 61 307 19.0 25.0 0.00 0.00 0.00 52 1011.1
20260505050834 61 319 17.0 22.0 0.00 0.00 0.00 52 1011.1
20260505050343 61 279 14.0 22.0 0.00 0.00 0.00 52 1011.2
20260505041342 62 279 18.0 24.0 0.00 0.00 0.00 51 1010.8
20260505040817 62 270 17.0 25.0 0.00 0.00 0.00 51 1010.7
20260505040329 62 311 19.0 29.0 0.00 0.00 0.00 51 1010.7
20260505035818 62 292 20.0 29.0 0.00 0.00 0.00 51 1010.8
20260505035348 62 297 18.0 30.0 0.00 0.00 0.00 50 1010.7
20260505034818 62 304 21.0 30.0 0.00 0.00 0.00 51 1010.6
20260505034329 62 294 19.0 26.0 0.00 0.00 0.00 50 1010.5
20260505033820 62 304 16.0 32.0 0.00 0.00 0.00 49 1010.3
20260505033351 62 271 23.0 33.0 0.00 0.00 0.00 49 1010.3
20260505032823 63 262 24.0 33.0 0.00 0.00 0.00 49 1010.3
20260505032314 63 281 16.0 25.0 0.00 0.00 0.00 49 1010.4
20260505031832 63 281 19.0 30.0 0.00 0.00 0.00 49 1010.3
20260505031322 63 288 22.0 30.0 0.00 0.00 0.00 49 1010.2
20260505030835 63 281 21.0 31.0 0.00 0.00 0.00 49 1010.2
20260505030345 63 271 21.0 30.0 0.00 0.00 0.00 49 1010.2
20260505025854 63 308 21.0 30.0 0.00 0.00 0.00 49 1010.2
20260505025345 63 265 22.0 30.0 0.00 0.00 0.00 49 1010.1
20260505024836 64 311 21.0 29.0 0.00 0.00 0.00 48 1010.0
20260505024325 64 277 23.0 30.0 0.00 0.00 0.00 47 1010.1
20260505023817 64 296 20.0 26.0 0.00 0.00 0.00 46 1010.1
20260505023328 64 247 17.0 28.0 0.00 0.00 0.00 45 1010.1
20260505022819 65 286 19.0 31.0 0.00 0.00 0.00 45 1010.0
20260505022330 65 284 21.0 31.0 0.00 0.00 0.00 44 1009.9
20260505021843 66 272 18.0 29.0 0.00 0.00 0.00 43 1009.9
20260505021316 66 285 24.0 33.0 0.00 0.00 0.00 43 1009.8
20260505020829 66 267 24.0 33.0 0.00 0.00 0.00 42 1009.9
20260505020339 66 295 24.0 32.0 0.00 0.00 0.00 41 1009.9
20260505015826 67 294 21.0 31.0 0.00 0.00 0.00 40 1009.9
20260505015316 67 288 20.0 37.0 0.00 0.00 0.00 40 1009.8
20260505014827 67 269 22.0 37.0 0.00 0.00 0.00 40 1009.6
20260505014319 68 259 18.0 29.0 0.00 0.00 0.00 38 1009.8
20260505013832 68 273 17.0 29.0 0.00 0.00 0.00 38 1009.9
20260505013322 68 289 18.0 33.0 0.00 0.00 0.00 37 1009.8
20260505012835 68 265 25.0 35.0 0.00 0.00 0.00 36 1009.8
20260505012325 69 265 26.0 35.0 0.00 0.00 0.00 35 1009.7
20260505011822 69 301 23.0 35.0 0.00 0.00 0.00 34 1009.8
20260505011332 69 288 27.0 35.0 0.00 0.00 0.00 34 1009.8
20260505010825 69 240 19.0 29.0 0.00 0.00 0.00 33 1009.9
20260505010316 70 254 19.0 33.0 0.00 0.00 0.00 32 1009.8
20260505005826 70 267 24.0 33.0 0.00 0.00 0.00 32 1009.8
20260505005316 70 269 22.0 30.0 0.00 0.00 0.00 32 1009.8
20260505004828 70 249 22.0 32.0 0.00 0.00 0.00 32 1009.8
20260505004320 70 259 22.0 32.0 0.00 0.00 0.00 32 1009.8
20260505003832 71 288 23.0 36.0 0.00 0.00 0.00 31 1009.8
20260505003327 71 275 26.0 36.0 0.00 0.00 0.00 31 1009.9
20260505002819 71 250 24.0 33.0 0.00 0.00 0.00 29 1009.8
20260505002329 71 264 20.0 32.0 0.00 0.00 0.00 30 1009.9
20260505001823 71 275 22.0 33.0 0.00 0.00 0.00 30 1009.9
20260505001314 71 258 19.0 33.0 0.00 0.00 0.00 31 1009.9
20260505000827 70 292 24.0 34.0 0.00 0.00 0.00 32 1010.0
20260505000339 70 260 25.0 34.0 0.00 0.00 0.00 32 1009.9
20260504235846 71 270 20.0 34.0 0.00 0.00 0.00 31 1010.0
20260504235315 71 257 23.0 34.0 0.00 0.00 0.00 31 1009.8
20260504234827 70 272 21.0 32.0 0.00 0.00 0.00 32 1009.7
20260504234322 70 267 17.0 32.0 0.00 0.00 0.00 33 1009.8
20260504233833 70 273 19.0 37.0 0.00 0.00 0.00 33 1009.7
20260504233323 70 267 25.0 37.0 0.00 0.00 0.00 33 1009.8
20260504232835 70 274 26.0 37.0 0.00 0.00 0.00 32 1009.8
20260504232344 71 260 28.0 37.0 0.00 0.00 0.00 32 1009.8
20260504231815 72 246 23.0 33.0 0.00 0.00 0.00 32 1009.8
20260504231326 72 285 25.0 37.0 0.00 0.00 0.00 31 1009.7
20260504230818 72 253 25.0 37.0 0.00 0.00 0.00 30 1009.8
20260504230329 73 272 24.0 33.0 0.00 0.00 0.00 30 1009.7
20260504225820 72 278 17.0 35.0 0.00 0.00 0.00 31 1009.8
20260504225331 72 244 24.0 35.0 0.00 0.00 0.00 30 1009.7
20260504224828 72 291 24.0 39.0 0.00 0.00 0.00 31 1009.9
20260504224340 73 250 28.0 39.0 0.00 0.00 0.00 30 1009.8
20260504223831 73 267 22.0 38.0 0.00 0.00 0.00 31 1009.9
20260504223322 73 254 26.0 38.0 0.00 0.00 0.00 31 1010.0
20260504222815 72 276 22.0 35.0 0.00 0.00 0.00 31 1010.0
20260504222327 72 260 22.0 33.0 0.00 0.00 0.00 30 1010.1
20260504221821 72 260 24.0 36.0 0.00 0.00 0.00 31 1010.1
20260504221313 72 276 28.0 36.0 0.00 0.00 0.00 31 1010.2
20260504220827 72 259 26.0 35.0 0.00 0.00 0.00 32 1010.3
20260504220343 72 284 26.0 34.0 0.00 0.00 0.00 31 1010.3
20260504215830 71 277 26.0 37.0 0.00 0.00 0.00 32 1010.4
20260504215321 71 257 28.0 38.0 0.00 0.00 0.00 32 1010.5
20260504214813 71 255 25.0 35.0 0.00 0.00 0.00 31 1010.7
20260504214325 71 279 28.0 35.0 0.00 0.00 0.00 32 1010.8
20260504213817 71 231 25.0 33.0 0.00 0.00 0.00 31 1010.9
20260504213327 71 259 28.0 33.0 0.00 0.00 0.00 30 1010.8
20260504212820 72 244 24.0 33.0 0.00 0.00 0.00 30 1010.9
20260504212332 71 288 25.0 35.0 0.00 0.00 0.00 32 1011.0
20260504211846 71 254 25.0 36.0 0.00 0.00 0.00 31 1010.9
20260504211335 71 250 28.0 36.0 0.00 0.00 0.00 31 1011.0
20260504210830 72 250 23.0 34.0 0.00 0.00 0.00 30 1011.1
20260504210322 71 277 26.0 34.0 0.00 0.00 0.00 30 1011.0
20260504205830 72 248 26.0 31.0 0.00 0.00 0.00 30 1011.2
20260504205341 71 251 23.0 34.0 0.00 0.00 0.00 31 1011.1
20260504204814 71 244 27.0 34.0 0.00 0.00 0.00 31 1011.1
20260504204325 71 261 20.0 30.0 0.00 0.00 0.00 31 1011.3
20260504203818 71 275 23.0 34.0 0.00 0.00 0.00 31 1011.3
20260504203348 71 258 21.0 29.0 0.00 0.00 0.00 31 1011.4
20260504202820 71 259 18.0 32.0 0.00 0.00 0.00 31 1011.2
20260504202316 71 265 20.0 32.0 0.00 0.00 0.00 31 1011.3
20260504201847 71 269 24.0 29.0 0.00 0.00 0.00 32 1011.4
20260504201316 71 242 23.0 30.0 0.00 0.00 0.00 31 1011.5
20260504200829 70 248 21.0 30.0 0.00 0.00 0.00 32 1011.5
20260504200340 71 275 22.0 32.0 0.00 0.00 0.00 31 1011.6
20260504195829 70 260 24.0 32.0 0.00 0.00 0.00 32 1011.6
20260504195319 70 273 22.0 31.0 0.00 0.00 0.00 32 1011.4
20260504194851 69 267 23.0 31.0 0.00 0.00 0.00 33 1011.6
20260504194321 69 267 22.0 31.0 0.00 0.00 0.00 33 1011.8
20260504193813 69 252 24.0 30.0 0.00 0.00 0.00 33 1011.9
20260504193324 69 271 19.0 29.0 0.00 0.00 0.00 33 1011.8
20260504192820 69 280 23.0 32.0 0.00 0.00 0.00 32 1011.9
20260504192351 70 264 24.0 32.0 0.00 0.00 0.00 32 1012.0
20260504191821 70 277 19.0 26.0 0.00 0.00 0.00 32 1012.0
20260504191313 69 263 17.0 30.0 0.00 0.00 0.00 32 1012.0
20260504190827 69 250 22.0 30.0 0.00 0.00 0.00 33 1012.0
20260504190318 69 293 16.0 32.0 0.00 0.00 0.00 34 1012.0
20260504185828 69 277 23.0 32.0 0.00 0.00 0.00 34 1012.1
20260504185340 69 253 21.0 29.0 0.00 0.00 0.00 35 1012.1
20260504184831 68 239 21.0 34.0 0.00 0.00 0.00 35 1012.1
20260504184321 68 302 25.0 34.0 0.00 0.00 0.00 36 1012.1
20260504183818 68 292 22.0 34.0 0.00 0.00 0.00 36 1012.2
20260504183330 68 265 24.0 35.0 0.00 0.00 0.00 36 1012.4
20260504182842 68 254 24.0 31.0 0.00 0.00 0.00 35 1012.3
20260504182351 67 265 23.0 34.0 0.00 0.00 0.00 36 1012.3
20260504181823 67 262 27.0 34.0 0.00 0.00 0.00 37 1012.2
20260504181313 67 269 23.0 32.0 0.00 0.00 0.00 37 1012.2
20260504180827 67 273 20.0 32.0 0.00 0.00 0.00 39 1012.3
20260504180337 66 260 21.0 34.0 0.00 0.00 0.00 40 1012.2
20260504175825 65 266 23.0 31.0 0.00 0.00 0.00 40 1012.1
20260504175316 65 267 21.0 31.0 0.00 0.00 0.00 40 1012.1
20260504174814 65 248 24.0 31.0 0.00 0.00 0.00 40 1012.0
20260504174325 65 267 24.0 32.0 0.00 0.00 0.00 41 1012.0
20260504173818 65 269 23.0 32.0 0.00 0.00 0.00 41 1011.9
20260504173328 65 271 22.0 30.0 0.00 0.00 0.00 41 1011.9
20260504172820 65 251 22.0 32.0 0.00 0.00 0.00 40 1011.9
20260504172312 64 265 24.0 32.0 0.00 0.00 0.00 41 1011.9
20260504171826 65 255 23.0 35.0 0.00 0.00 0.00 41 1011.9
20260504171337 64 257 23.0 35.0 0.00 0.00 0.00 42 1012.0
20260504170829 64 261 25.0 33.0 0.00 0.00 0.00 42 1012.0
20260504170325 64 274 26.0 33.0 0.00 0.00 0.00 42 1011.9
20260504160332 61 274 23.0 31.0 0.00 0.00 0.00 46 1011.6
20260504150827 60 291 16.0 25.0 0.00 0.00 0.00 51 1011.6
20260504150317 60 267 12.0 28.0 0.00 0.00 0.00 51 1011.6
20260504141320 60 286 17.0 23.0 0.00 0.00 0.00 52 1011.6
20260504140817 60 255 16.0 23.0 0.00 0.00 0.00 51 1011.6
20260504140328 59 269 15.0 19.0 0.00 0.00 0.00 52 1011.6
20260504130315 59 295 22.0 34.0 0.00 0.00 0.00 54 1011.0
20260504110327 59 280 29.0 38.0 0.00 0.00 0.00 56 1009.9
20260504100324 60 285 25.0 35.0 0.00 0.00 0.00 54 1009.6